This is the latest recevied weather packets stored in our database for station/object EA6AMI-5. If no packets are shown the sender has not sent any weather packets the latest 10 day(s).
| Time | Temp. | Humidity | Pressure | Rain* | Wind** | Luminosity | Snow |
|---|---|---|---|---|---|---|---|
| 1777970704 | 18.89° C | 70% | 1012.1 hPa | 0 mm | - | 564 W/m² | - |
| 1777970163 | 18.89° C | 69% | 1012 hPa | 0 mm | - | 548 W/m² | - |
| 1777969623 | 18.33° C | 74% | 1012.2 hPa | 0 mm | - | 531 W/m² | - |
| 1777969083 | 18.89° C | 73% | 1012.3 hPa | 0 mm | - | 407 W/m² | - |
| 1777968543 | 18.33° C | 73% | 1012.4 hPa | 0 mm | - | 426 W/m² | - |
| 1777968004 | 18.33° C | 75% | 1012.3 hPa | 0 mm | - | 334 W/m² | - |
| 1777967643 | 17.78° C | 76% | 1012.3 hPa | 0 mm | - | 381 W/m² | - |
| 1777967103 | 17.78° C | 77% | 1012.2 hPa | 0 mm | - | 341 W/m² | - |
| 1777966563 | 17.78° C | 78% | 1012.3 hPa | 0 mm | - | 131 W/m² | - |
| 1777966024 | 17.22° C | 79% | 1012.3 hPa | 0 mm | - | 86 W/m² | - |
| 1777965483 | 17.78° C | 78% | 1012.4 hPa | 0 mm | - | 112 W/m² | - |
| 1777964943 | 17.78° C | 79% | 1012.4 hPa | 0 mm | - | 110 W/m² | - |
| 1777964404 | 17.78° C | 78% | 1012.3 hPa | 0 mm | - | 244 W/m² | - |
| 1777964043 | 17.22° C | 79% | 1012.1 hPa | 0 mm | - | 203 W/m² | - |
| 1777963503 | 17.22° C | 79% | 1012.4 hPa | 0 mm | - | 155 W/m² | - |
| 1777962964 | 17.78° C | 78% | 1012.5 hPa | 0 mm | - | 129 W/m² | - |
| 1777962424 | 17.78° C | 79% | 1012.2 hPa | 0 mm | - | 104 W/m² | - |
| 1777961883 | 17.22° C | 80% | 1012.2 hPa | 0 mm | - | 91 W/m² | - |
| 1777961343 | 17.22° C | 81% | 1012 hPa | 0 mm | - | 80 W/m² | - |
| 1777960803 | 16.67° C | 83% | 1012.3 hPa | 0 mm | - | 71 W/m² | - |
| 1777960443 | 16.67° C | 83% | 1012.3 hPa | 0 mm | - | 66 W/m² | - |
| 1777959903 | 16.67° C | 83% | 1012.4 hPa | 0 mm | - | 54 W/m² | - |
| 1777959364 | 16.11° C | 83% | 1012.2 hPa | 0 mm | - | 45 W/m² | - |
| 1777958823 | 16.11° C | 83% | 1012.1 hPa | 0 mm | - | 34 W/m² | - |
| 1777958284 | 15.56° C | 83% | 1012.2 hPa | 0 mm | - | 23 W/m² | - |
* Rain latest hour (hover to see other rain measurements)
** Current wind speed in m/s (hover to see current wind gust speed)